Regional Weather Roundup
Issued by NWS

Home | Current Version | Previous Version | Text Only | Print | Product List | Glossary Off
Versions: 1 2 3 4 5 6 7 8 9 10 11 12 13 14 15 16 17 18 19 20 21 22 23 24 25 26 27 28

000
ASUS45 KSLC 230610
RWRUT

UTAH REGIONAL WEATHER ROUNDUP
NATIONAL WEATHER SERVICE SALT LAKE CITY UT
1100 PM MST THU FEB 22 2018

UTZ001>011-023>025-230700-

NORTHERN UTAH

CITY           SKY/WX    TMP DP  RH WIND       PRES   REMARKS
BRIGHAM CITY   CLOUDY    27  23  86 N8        29.97F WCI  18
HILL AFB       LGT SNOW  26  24  94 SE5       29.94S FOG     WCI  20
LOGAN          CLOUDY    22  15  75 CALM      29.98S HAZE
OGDEN          LGT SNOW  27  25  92 SE5       29.95S VSB 3/4 WCI  22
SALT LAKE CITY FLURRIES  31  25  78 E3        29.96S
TOOELE VALLEY  MOCLDY    23  21  93 NE6       29.95S WCI  16
WENDOVER       NOT AVBL
HEBER CITY     LGT SNOW  23  21  93 CALM      29.92S

$$

UTZ011>015-024>027-230700-

CENTRAL/NORTHEAST UTAH

CITY           SKY/WX    TMP DP  RH WIND       PRES   REMARKS
PROVO AIRPORT  CLOUDY    28  21  75 S6        29.96F WCI  22
MOAB/CANYONLAN CLOUDY    33  14  45 CALM      29.95F
DELTA          PTCLDY    21  14  73 S8        29.93S WCI  12
PRICE          CLOUDY    24  23  96 E5        29.93S WCI  18
VERNAL         PTCLDY    17  13  84 W5        29.98F WCI  10

$$

UTZ013>016-019>022-027-230700-

SOUTHERN UTAH

CITY           SKY/WX    TMP DP  RH WIND       PRES   REMARKS
BRYCE CANYON   LGT SNOW  19  18  95 SE8       29.89F VSB 3/4 WCI   9
CEDAR CITY     LGT SNOW  26  25  96 S17       29.89S VSB 1   WCI  13
MILFORD        PTCLDY    24  19  81 SW13      29.90F WCI  12
ST GEORGE      LGT RAIN  37  34  89 N14       29.97F WCI  28
HANKSVILLE     CLOUDY    32  12  43 CALM      29.99S
KANAB          CLOUDY    34  21  60 S8        30.00S WCI  27
BLANDING         N/A     31  13  47 W6        30.06S WCI  25

$$

REGIONAL REPORTS     COLORADO/ARIZONA

CITY           SKY/WX    TMP DP  RH WIND       PRES   REMARKS
CRAIG, CO      CLOUDY    21  16  81 E5        29.97F WCI  15
GRAND JUNCTION CLOUDY    28  24  85 E6        30.00S WCI  22
RIFLE, CO      LGT SNOW  26  25  96 SE3       30.00S FOG
MONTROSE, CO   CLOUDY    29  17  61 SE6       30.00S WCI  23
CORTEZ, CO     CLOUDY    24  13  62 CALM      30.02R
COLORADO CITY  LGT SNOW  32  30  93 SW10G16   29.98F WCI  24
PAGE, AZ       PTCLDY    34  20  56 NE7       29.98R WCI  28
GRAND CANYON   CLOUDY    27  17  66 SW18G24   29.99S WCI  14
KINGMAN, AZ    CLOUDY    44  25  47 S23G32    30.01S
FLAGSTAFF, AZ  FLURRIES  25  17  72 SW20G29   30.02S WCI  11

$$

REGIONAL REPORTS    NEVADA/IDAHO/WYOMING

CITY           SKY/WX    TMP DP  RH WIND       PRES   REMARKS
LAS VEGAS, NV  PTCLDY    47  13  25 SW16      29.94F
ELY, NY        LGT SNOW  17  13  84 NW3       29.89R
ELKO, NV       PTCLDY    15  12  88 CALM      29.93R
POCATELLO, ID  CLOUDY    22  17  81 SW13      30.01R WCI  10
BURLEY, ID     PTCLDY    14  12  92 SW7       30.02R WCI   4
EVANSTON, WY   MOCLDY     9   4  80 E8        29.88S WCI  -3
ROCK SPRINGS,  PTCLDY     7   2  80 S5        29.94R WCI  -2

$$




USA.gov is the U.S. government's official web portal to all federal, state and local government web resources and services.